Regional Weather Roundup
Issued by NWS

Home | Current Version | Previous Version | Text Only | Print | Product List | Glossary On
Versions: 1 2 3 4 5 6 7 8 9 10 11 12 13 14 15 16 17 18 19 20 21 22 23 24 25 26 27 28 29 30 31 32 33 34 35 36 37 38 39 40 41 42 43 44 45 46 47 48 49 50
000
ASUS43 KDTX 242201
RWRMI
MICHIGAN HOURLY REGIONAL WEATHER ROUNDUP
NATIONAL WEATHER SERVICE DETROIT/PONTIAC MI
500 PM EST MON NOV 24 2014

NOTE: "FAIR" INDICATES FEW OR NO CLOUDS BELOW 12,000 FEET WITH NO
SIGNIFICANT WEATHER AND/OR OBSTRUCTION TO VISIBILITY.

MIZ047>049-052>055-059>063-066>070-074>076-081>083-242300-
SOUTHEAST LOWER MICHIGAN

CITY           SKY/WX    TMP DP  RH WIND       PRES   REMARKS
ADRIAN         CLOUDY    38  31  76 SW25G37   29.52R WCI  27
ALMA           LGT SNOW  34  33  94 SW24G38   29.34R WCI  22
ANN ARBOR      CLOUDY    39  30  70 SW31G46   29.47R WCI  27
BAD AXE        CLOUDY    42  40  91 SW31G43   29.26R
DETROIT CITY   CLOUDY    43  31  62 SW37G52   29.43R
DETROIT        CLOUDY    40  32  73 SW32G44   29.48R WCI  28
FLINT          CLOUDY    40  31  70 SW26G45   29.39R WCI  29
GROSSE ILE     CLOUDY    41  34  75 SW29G38   29.48R
HILLSDALE      CLOUDY    37  30  75 SW22G35   29.49R WCI  27
HOWELL         CLOUDY    37  32  84 SW22G35   29.41R WCI  25

CITY           SKY/WX    TMP DP  RH WIND       PRES   REMARKS
JACKSON        CLOUDY    36  30  79 SW30G49   29.45R WCI  23
LAMBERTVILLE   CLOUDY    41  32  70 SW20G33   29.54R
LANSING        CLOUDY    36  30  79 SW30G41   29.41R WCI  23
LAPEER         CLOUDY    39  31  73 SW24G44   29.36R WCI  28
MASON          CLOUDY    36  31  82 SW23G38   29.42R WCI  25
MONROE         CLOUDY    39  34  81 SW26G36   29.51R WCI  28
MT. CLEMENS    CLOUDY    42  34  73 SW33G47   29.40R
PONTIAC        CLOUDY   N/A N/A N/A SW32G45   29.40R
PORT HOPE        N/A     44  37  76 SW24G41   29.20R
PORT HURON     CLOUDY    43  34  70 SW9G28    29.39R
TRI CITIES     LGT SNOW  37  33  85 SW32G48   29.31R WCI  24
TROY           CLOUDY    42  32  68 SW28G43   29.45R
SAGINAW HB     LGT RAIN  37  36  93 SW25G38   29.32R WCI  26
$$
MIZ043>046-050>051-056>058-064>065-071>073-077>080-242300-
SOUTHWEST LOWER MICHIGAN

CITY           SKY/WX    TMP DP  RH WIND       PRES   REMARKS
BATTLE CREEK   CLOUDY    36  29  75 SW33G43   29.45R WCI  22
BENTON HARBOR  LGT SNOW  33  29  85 SW26G38   29.50R FOG     WCI  20
BIG RAPIDS     LGT SNOW  35  34  96 SW17G31   29.25R WCI  25
COLDWATER      CLOUDY    36  31  82 SW29G37   29.50R WCI  24
FREMONT        SNOW      33  32  97 SW20G28   29.31R VSB 1/2 WCI  21
HOLLAND        MIX PCPN  36  31  82 SW28G47   29.43R WCI  23
GRAND RAPIDS   FLURRIES  35  33  92 SW28G44   29.39R WCI  22
IONIA          CLOUDY    35  32  88 SW40G47   29.37R WCI  20
KALAMAZOO      CLOUDY    34  29  82 SW21G35   29.48R FOG     WCI  22
LUDINGTON      LGT RAIN  37  35  94 W22G32    29.25R WCI  26
MARSHALL       CLOUDY    34  29  82 SW28G41   29.46R WCI  21
MOUNT PLEASANT LGT SNOW  35  32  91 SW25G32   29.29R WCI  22
MUSKEGON       LGT SNOW  35  31  85 SW22G41   29.36R FOG     WCI  23
SOUTH HAVEN    CLOUDY    35  31  87 SW26G44   29.47R WCI  22
$$
MIZ016>042-242300-
NORTHERN LOWER MICHIGAN

CITY           SKY/WX    TMP DP  RH WIND       PRES   REMARKS
ALPENA         LGT RAIN  47  43  86 W3        29.10R
BEAVER ISLAND  CLOUDY    36  31  84 NW10G21   29.15R WCI  28
BELLAIRE       MIX PCPN  39  37  93 W5        29.17R
CADILLAC       LGT RAIN  40  38  93 SW20G26   29.16R WCI  30
CHARLEVOIX     DRIZZLE   36  36 100 NW8       29.18R WCI  30
FRANKFORT      LGT RAIN  37  36  96 NW5       29.19R WCI  33
GAYLORD        LGT RAIN  39  38  96 VRB5      29.11R FOG
GRAYLING       LGT RAIN  43  43 100 W9        29.14R
HARBOR SPRINGS CLOUDY    37  35  93 W8        29.13R FOG     WCI  30
HOUGHTON LAKE  LGT RAIN  43  39  86 SW18G30   29.15R
MANISTEE       CLOUDY    39  36  87 NW9       29.21R WCI  33
OSCODA         RAIN      48  46  93 SW24G35   29.12R
PELLSTON       CLOUDY    37  34  89 NW12      29.13R WCI  29
ROGERS CITY    LGT RAIN  44  43  97 W7        29.10R
TRAVERSE CITY  LGT RAIN  39  36  89 N8        29.17R FOG     WCI  33
$$
MIZ007>008-015-242300-
EASTERN UPPER MICHIGAN

CITY           SKY/WX    TMP DP  RH WIND       PRES   REMARKS
KINROSS        CLOUDY    37  37 100 NW12      29.08R WCI  30
MACKINAC ISLAN CLOUDY    38  38 100 W9        29.10R WCI  32
NEWBERRY       CLOUDY    33  32  97 NW10G23   29.12R WCI  24
S. S. MARIE    CLOUDY    38  36  92 W9        29.07R WCI  31
MUNISING         N/A     33  28  81 N22G39    29.22R WCI  21
$$
MIZ004>006-011>014-085-242300-
CENTRAL UPPER MICHIGAN

CITY           SKY/WX    TMP DP  RH WIND       PRES   REMARKS
MANISTIQUE     LGT SNOW  32  29  90 NW16G24   29.15R WCI  21
ESCANABA       CLOUDY    32  25  74 N15G25    29.20R WCI  22
MENOMINEE      CLOUDY    34  27  75 N12G20    29.23R WCI  25
SAWYER-GWINN   CLOUDY    27  23  86 NW14G25   29.23R WCI  15
$$
MIZ001>003-009>011-084-242300-
WESTERN UPPER MICHIGAN

CITY           SKY/WX    TMP DP  RH WIND       PRES   REMARKS
IRON MOUNTAIN  LGT SNOW  28  22  78 NW21G29   29.24R WCI  15
HOUGHTON       SNOW      24  20  84 N21G30    29.32R VSB 1/2 WCI   9
COPPER HARBOR    N/A     29  25  85 NE24G36   29.31R WCI  15
IRONWOOD       CLOUDY    23  21  93 NW15G22   29.39R VSB 3/4 WCI  10
$$

ABBREVIATIONS USED IN REMARKS
   TC - TEMPERATURE IN CELSIUS
  WCI - WIND CHILL INDEX
   HX - HEAT INDEX
  VSB - VISIBILITY



USA.gov is the U.S. government's official web portal to all federal, state and local government web resources and services.